Miscellaneous Local Product
Issued by NWS Hastings, NE

Home | Current Version | Previous Version | Text Only | Print | Product List | Glossary On
Versions: 1 2 3 4 5 6 7 8 9 10 11 12 13 14 15 16 17 18 19 20 21 22 23 24 25 26 27 28 29 30 31 32 33 34 35 36 37 38 39 40 41 42 43 44 45 46 47 48 49 50
000
AXUS43 KGID 250402
MISGRI

GID CWA HOURLY WEATHER ROUNDUP
NATIONAL WEATHER SERVICE HASTINGS NE
1100 PM CDT FRI APR 24 2015

NOTE: "FAIR" INDICATES FEW OR NO CLOUDS BELOW 12,000 FEET WITH NO
SIGNIFICANT WEATHER AND/OR OBSTRUCTIONS TO VISIBILITY.

...SOUTH CENTRAL NEBRASKA...

CITY           SKY/WX    TMP DP  RH WIND       PRES   REMARKS
GRAND ISLAND   CLOUDY    57  53  86 E6        29.54S
HASTINGS       CLOUDY    57  54  89 NE6       29.52F FOG
KEARNEY        CLOUDY    57  54  88 E9        29.55R
ORD            CLOUDY    57  45  64 S10       29.50F
YORK           CLOUDY    57  55  94 E5        29.52F
AURORA         CLOUDY    57  55  92 E6        29.52F
LEXINGTON      CLOUDY    56  54  92 N8        29.55R FOG
HOLDREGE       CLOUDY    58  55  91 E9        29.53R
HEBRON         RAIN      57  54  89 E5        29.50S

...NEBRASKA PANHANDLE...

CITY           SKY/WX    TMP DP  RH WIND       PRES   REMARKS
CHADRON        MOCLDY    46  41  82 W8        29.62R
ALLIANCE       PTCLDY    49  43  80 N14       29.61S
SCOTTSBLUFF    CLOUDY    50  43  77 N7        29.61R
SIDNEY         CLOUDY    53  37  54 NW12      29.60R

...WESTERN AND NORTH CENTRAL NEBRASKA...

CITY           SKY/WX    TMP DP  RH WIND       PRES   REMARKS
VALENTINE      CLOUDY    58  46  64 N18G25    29.53F
AINSWORTH      CLOUDY    63  45  51 NW18G28   29.54R
ONEILL         CLOUDY    61  45  56 SE16G23   29.50R
BROKEN BOW     CLOUDY    55  45  68 S6        29.53F
IMPERIAL       CLOUDY    55  42  61 NW13      29.54F
NORTH PLATTE   NOT AVBL
MCCOOK         CLOUDY    59  55  87 E8        29.52R

...EASTERN NEBRASKA...

CITY           SKY/WX    TMP DP  RH WIND       PRES   REMARKS
NORFOLK        CLOUDY    61  53  75 SE12      29.55S
SO SIOUX CITY  CLOUDY    59  49  69 SE10      29.58R
TEKAMAH        CLOUDY    59  52  77 E12       29.58R
COLUMBUS       CLOUDY    57  50  77 SE12      29.57S
ALBION         CLOUDY    59  53  80 SE8       29.53F
OMAHA EPPLEY   CLOUDY    58  53  84 E12       29.56S
OFFUTT AFB     CLOUDY    57  53  86 E8        29.54F
MILLARD        CLOUDY    58  53  83 E3        29.55F
LINCOLN        CLOUDY    58  54  86 SE13      29.52F
NEBRASKA CITY  CLOUDY    56  51  82 SE10      29.54F
BEATRICE       RAIN      57  55  93 E8G16     29.51F
FALLS CITY     CLOUDY    59  53  80 E15       29.50F

...NORTHERN KANSAS...

CITY           SKY/WX    TMP DP  RH WIND       PRES   REMARKS
GOODLAND       CLOUDY    51  43  74 W16       29.58R
HILL CITY      LGT RAIN  59  49  69 W10       29.46F
NORTON         CLOUDY    57  54  88 N3        29.52R
HAYS           CLOUDY    55  48  76 NE9       29.51R
RUSSELL        RAIN      54  54 100 E12       29.48R FOG
CONCORDIA      LGT RAIN  55  53  93 SW7       29.51S FOG
SALINA         CLOUDY    58  52  80 N14       29.47F
TOPEKA         PTCLDY    64  58  80 SE20G30   29.49F



USA.gov is the U.S. government's official web portal to all federal, state and local government web resources and services.